Pawtucket, RI

1:05 PM EDT on June 23, 2017 (GMT -0400)
North Central State

Weather History for KSFZ - March, 2014

Change the Weather History Date:

Sunday, March 23, 2014

  Actual Average Record
Temperature  
Mean Temperature 34 °F -  
Max Temperature 42 °F 45 °F 73 °F (2012)
Min Temperature 26 °F 29 °F 10 °F (2015)
Degree Days  
Heating Degree Days 31    
Moisture  
Dew Point 14 °F    
Average Humidity 48    
Maximum Humidity 80    
Minimum Humidity 25    
Precipitation  
Precipitation 0.00 in - - ()
Sea Level Pressure  
Sea Level Pressure 29.96 in    
Wind  
Wind Speed 6 mph (WNW)    
Max Wind Speed 17 mph    
Max Gust Speed 24 mph    
Visibility 10 miles    
Events      
Averages and records for this station are not official NWS values.
T = Trace of Precipitation, MM = Missing Value Source: NWS Daily Summary

Daily Weather History Graph

Daily Weather History Graph

Search for Another Location

Airport or City:

Trip Planner

Search our weather history database for the weather conditions in past years. The results will help you decide how hot, cold, wet, or windy it might be!

Date:

Astronomy

Mar. 23, 2014 Rise Set
Actual Time 6:44 AM EDT 7:01 PM EDT
Civil Twilight 6:16 AM EDT 7:29 PM EDT
Nautical Twilight 5:43 AM EDT 8:02 PM EDT
Astronomical Twilight 5:10 AM EDT 8:35 PM EDT
Moon 1:20 AM EDT 11:17 AM EDT
Length of Visible Light 13h 13m
Length of Day
12h 17m
Waning Gibbous, 55% of the Moon is Illuminated
Mar 23
Waning Gibbous
Mar 23
Last Quarter
Mar 30
New
Apr 7
First Quarter
Apr 15
Full

Hourly Weather History & Observations

Time (EDT) Temp. Windchill Dew Point Humidity Pressure Visibility Wind Dir Wind Speed Gust Speed Precip Events Conditions
12:15 AM 33.8 °F 27.7 °F 19.4 °F 56% 29.96 in 10.0 mi WNW 6.9 mph - N/A   Clear
12:35 AM 33.8 °F 28.6 °F 19.4 °F 56% 29.96 in 10.0 mi WNW 5.8 mph - N/A   Clear
12:55 AM 32.0 °F 27.5 °F 19.4 °F 60% 29.96 in 10.0 mi WNW 4.6 mph - N/A   Clear
1:15 AM 30.2 °F 26.7 °F 19.4 °F 64% 29.96 in 10.0 mi WNW 3.5 mph - N/A   Clear
1:35 AM 30.2 °F 24.3 °F 19.4 °F 64% 29.95 in 10.0 mi WNW 5.8 mph - N/A   Clear
1:55 AM 30.2 °F 25.4 °F 19.4 °F 64% 29.95 in 10.0 mi WNW 4.6 mph - N/A   Clear
2:15 AM 30.2 °F 26.7 °F 19.4 °F 64% 29.94 in 10.0 mi West 3.5 mph - N/A   Clear
2:35 AM 28.4 °F 24.6 °F 19.4 °F 69% 29.96 in 10.0 mi SSW 3.5 mph - N/A   Clear
2:55 AM 28.4 °F - 19.4 °F 69% 29.95 in 10.0 mi Calm Calm - N/A   Clear
3:15 AM 26.6 °F - 19.4 °F 74% 29.95 in 10.0 mi Calm Calm - N/A   Clear
3:35 AM 26.6 °F - 19.4 °F 74% 29.95 in 10.0 mi Calm Calm - N/A   Clear
3:55 AM 26.6 °F - 19.4 °F 74% 29.95 in 9.0 mi Calm Calm - N/A   Clear
4:15 AM 26.6 °F 22.6 °F 19.4 °F 74% 29.96 in 10.0 mi South 3.5 mph - N/A   Clear
4:35 AM 26.6 °F - 19.4 °F 74% 29.95 in 10.0 mi Calm Calm - N/A   Clear
4:55 AM 26.6 °F - 19.4 °F 74% 29.95 in 10.0 mi Calm Calm - N/A   Partly Cloudy
5:15 AM 28.4 °F 24.6 °F 19.4 °F 69% 29.96 in 10.0 mi SW 3.5 mph - N/A   Scattered Clouds
5:35 AM 26.6 °F 22.6 °F 19.4 °F 74% 29.94 in 10.0 mi WNW 3.5 mph - N/A   Partly Cloudy
5:55 AM 26.6 °F 22.6 °F 21.2 °F 80% 29.97 in 10.0 mi SW 3.5 mph - N/A   Mostly Cloudy
6:15 AM 26.6 °F - 21.2 °F 80% 29.98 in 10.0 mi Calm Calm - N/A   Scattered Clouds
6:35 AM 28.4 °F - 21.2 °F 74% 29.99 in 10.0 mi Calm Calm - N/A   Scattered Clouds
6:55 AM 26.6 °F - 19.4 °F 74% 29.98 in 10.0 mi Calm Calm - N/A   Scattered Clouds
7:15 AM 28.4 °F - 19.4 °F 69% 29.99 in 10.0 mi Calm Calm - N/A   Clear
7:35 AM 28.4 °F - 21.2 °F 74% 30.00 in 10.0 mi Calm Calm - N/A   Clear
7:55 AM 30.2 °F 26.7 °F 21.2 °F 69% 30.00 in 10.0 mi SW 3.5 mph - N/A   Clear
8:15 AM 32.0 °F - 21.2 °F 64% 29.99 in 10.0 mi Calm Calm - N/A   Clear
8:35 AM 33.8 °F 30.8 °F 21.2 °F 60% 29.99 in 10.0 mi SW 3.5 mph - N/A   Clear
8:55 AM 33.8 °F - 21.2 °F 60% 29.99 in 10.0 mi Calm Calm - N/A   Clear
9:15 AM 35.6 °F 30.7 °F 21.2 °F 56% 29.99 in 10.0 mi SSW 5.8 mph - N/A   Clear
9:35 AM 35.6 °F 29.9 °F 21.2 °F 56% 29.99 in 10.0 mi SW 6.9 mph - N/A   Clear
9:55 AM 35.6 °F 30.7 °F 21.2 °F 56% 29.99 in 10.0 mi SW 5.8 mph - N/A   Clear
10:15 AM 37.4 °F 32.8 °F 21.2 °F 52% 29.99 in 10.0 mi WSW 5.8 mph - N/A   Clear
10:35 AM 37.4 °F 32.1 °F 19.4 °F 48% 29.99 in 10.0 mi WSW 6.9 mph - N/A   Partly Cloudy
10:55 AM 37.4 °F 29.3 °F 19.4 °F 48% 29.99 in 10.0 mi West 12.7 mph 16.1 mph N/A   Clear
11:15 AM 37.4 °F 29.8 °F 19.4 °F 48% 29.98 in 10.0 mi West 11.5 mph 17.3 mph N/A   Clear
11:35 AM 39.2 °F 31.2 °F 15.8 °F 39% 29.97 in 10.0 mi West 13.8 mph 18.4 mph N/A   Clear
11:55 AM 39.2 °F 30.8 °F 10.4 °F 31% 29.97 in 10.0 mi West 15.0 mph 21.9 mph N/A   Clear
12:15 PM 41.0 °F 35.2 °F 10.4 °F 29% 29.96 in 10.0 mi West 9.2 mph 17.3 mph N/A   Clear
12:35 PM 41.0 °F 35.8 °F 10.4 °F 29% 29.96 in 10.0 mi West 8.1 mph 20.7 mph N/A   Clear
12:55 PM 41.0 °F 34.3 °F 8.6 °F 26% 29.95 in 10.0 mi WNW 11.5 mph 18.4 mph N/A   Clear
1:15 PM 42.8 °F 35.8 °F 8.6 °F 25% 29.95 in 10.0 mi WNW 13.8 mph 21.9 mph N/A   Clear
1:35 PM 42.8 °F 35.8 °F 8.6 °F 25% 29.95 in 10.0 mi WNW 13.8 mph 17.3 mph N/A   Clear
1:55 PM 41.0 °F 32.5 °F 10.4 °F 29% 29.94 in 10.0 mi West 17.3 mph 24.2 mph N/A   Clear
2:15 PM 39.2 °F 30.2 °F 10.4 °F 31% 29.94 in 10.0 mi West 17.3 mph 21.9 mph N/A   Clear
2:35 PM 39.2 °F 30.8 °F 12.2 °F 33% 29.94 in 10.0 mi West 15.0 mph 21.9 mph N/A   Clear
2:55 PM 39.2 °F 33.6 °F 10.4 °F 31% 29.93 in 10.0 mi West 8.1 mph 19.6 mph N/A   Clear
3:15 PM 39.2 °F 32.0 °F 12.2 °F 33% 29.92 in 10.0 mi West 11.5 mph 18.4 mph N/A   Clear
3:35 PM 39.2 °F 33.0 °F 12.2 °F 33% 29.91 in 10.0 mi WNW 9.2 mph - N/A   Clear
3:55 PM 39.2 °F 30.8 °F 10.4 °F 31% 29.91 in 10.0 mi NW 15.0 mph 19.6 mph N/A   Clear
4:15 PM 39.2 °F 30.8 °F 10.4 °F 31% 29.91 in 10.0 mi NNW 15.0 mph 18.4 mph N/A   Clear
4:35 PM 37.4 °F 28.9 °F 8.6 °F 30% 29.91 in 10.0 mi WNW 13.8 mph 18.4 mph N/A   Clear
4:55 PM 37.4 °F 30.8 °F 8.6 °F 30% 29.91 in 10.0 mi NW 9.2 mph - N/A   Clear
5:15 PM 37.4 °F 30.8 °F 6.8 °F 28% 29.91 in 10.0 mi NW 9.2 mph - N/A   Clear
5:35 PM 35.6 °F 28.0 °F 8.6 °F 33% 29.92 in 10.0 mi NW 10.4 mph 20.7 mph N/A   Clear
5:55 PM 35.6 °F 28.0 °F 8.6 °F 33% 29.93 in 10.0 mi WNW 10.4 mph 19.6 mph N/A   Clear
6:15 PM 35.6 °F 28.6 °F 8.6 °F 33% 29.93 in 10.0 mi West 9.2 mph - N/A   Scattered Clouds
6:35 PM 33.8 °F 25.8 °F 8.6 °F 35% 29.94 in 10.0 mi NW 10.4 mph - N/A   Mostly Cloudy
6:55 PM 33.8 °F 25.3 °F 8.6 °F 35% 29.94 in 10.0 mi WNW 11.5 mph - N/A   Mostly Cloudy
7:15 PM 33.8 °F 26.4 °F 10.4 °F 38% 29.94 in 10.0 mi WNW 9.2 mph 16.1 mph N/A   Overcast
7:35 PM 33.8 °F 25.8 °F 8.6 °F 35% 29.95 in 10.0 mi WNW 10.4 mph - N/A   Overcast
7:55 PM 33.8 °F 27.7 °F 8.6 °F 35% 29.96 in 10.0 mi NW 6.9 mph - N/A   Overcast
8:15 PM 32.0 °F 24.2 °F 8.6 °F 38% 29.96 in 10.0 mi NW 9.2 mph - N/A   Mostly Cloudy
8:35 PM 32.0 °F 24.8 °F 8.6 °F 38% 29.97 in 10.0 mi NW 8.1 mph - N/A   Mostly Cloudy
8:55 PM 30.2 °F 21.3 °F 6.8 °F 37% 29.98 in 10.0 mi NNW 10.4 mph 16.1 mph N/A   Scattered Clouds
9:15 PM 30.2 °F 20.8 °F 5.0 °F 34% 29.99 in 10.0 mi NNW 11.5 mph 17.3 mph N/A   Clear
9:35 PM 30.2 °F 19.8 °F 3.2 °F 32% 29.99 in 10.0 mi NW 13.8 mph 19.6 mph N/A   Clear
9:55 PM 28.4 °F 19.7 °F 3.2 °F 34% 29.99 in 10.0 mi NNW 9.2 mph - N/A   Clear
10:15 PM 28.4 °F 18.0 °F 5.0 °F 37% 30.00 in 10.0 mi NNW 12.7 mph 19.6 mph N/A   Clear
10:35 PM 28.4 °F 18.5 °F 3.2 °F 34% 30.01 in 10.0 mi North 11.5 mph 16.1 mph N/A   Clear
10:55 PM 28.4 °F 17.5 °F 3.2 °F 34% 30.01 in 10.0 mi NNW 13.8 mph 17.3 mph N/A   Clear
11:15 PM 26.6 °F 14.3 °F 3.2 °F 37% 30.02 in 10.0 mi North 16.1 mph 23.0 mph N/A   Clear
11:35 PM 26.6 °F 14.7 °F 3.2 °F 37% 30.02 in 10.0 mi North 15.0 mph 23.0 mph N/A   Clear
11:55 PM 26.6 °F 16.2 °F 1.4 °F 34% 30.03 in 10.0 mi North 11.5 mph - N/A   Clear